EZY76EZ EGKK-LTAI

Flight info

Callsign EZY76EZ
Flight time 3h 44m
Altitude 35000
Route ODVIK Y311 DVR UL9 KONAN DCT KOK DCT DENOX DCT MATUG DCT BOMBI DCT TENLO DCT LAMSI DCT BARUG DCT SASAL DCT SOGMO DCT BABIT DCT OKLOP DCT NISVA DCT OTKOK DCT RODIP DCT BELGI UN131 KOZLU
Aircraft A21N/M-SDE2E3FGHIJ1RWXYZ/LB1G1

Departure

Time 2026-05-06 07:42
Airport London Gatwick Airport (EGKK)

Arrival

Time 2026-05-06 11:27
Airport Antalya International Airport (LTAI)
Time Latitude Longitude Altitude Speed Heading
2026-05-06 07:17 51.16019 -0.17011 197 ft 0 kts 333°
2026-05-06 07:30 51.16016 -0.17008 197 ft 2 kts 333°
2026-05-06 07:30 51.16003 -0.16997 197 ft 2 kts 333°
2026-05-06 07:30 51.15990 -0.16987 197 ft 2 kts 332°
2026-05-06 07:31 51.15977 -0.16976 197 ft 1 kts 333°
2026-05-06 07:31 51.15968 -0.16969 197 ft 2 kts 316°
2026-05-06 07:31 51.15962 -0.16947 197 ft 2 kts 271°
2026-05-06 07:31 51.15963 -0.16934 197 ft 1 kts 248°
2026-05-06 07:32 51.15965 -0.16925 197 ft 0 kts 249°
2026-05-06 07:34 51.15958 -0.16951 197 ft 6 kts 244°
2026-05-06 07:34 51.15917 -0.17030 197 ft 12 kts 218°
2026-05-06 07:35 51.15831 -0.17089 197 ft 12 kts 214°
2026-05-06 07:35 51.15795 -0.17242 197 ft 17 kts 258°
2026-05-06 07:35 51.15768 -0.17442 197 ft 14 kts 258°
2026-05-06 07:35 51.15701 -0.17493 197 ft 14 kts 169°
2026-05-06 07:36 51.15587 -0.17455 197 ft 11 kts 170°
2026-05-06 07:36 51.15534 -0.17539 197 ft 12 kts 256°
2026-05-06 07:36 51.15510 -0.17702 197 ft 17 kts 257°
2026-05-06 07:36 51.15481 -0.17911 198 ft 21 kts 258°
2026-05-06 07:37 51.15449 -0.18150 198 ft 22 kts 258°
2026-05-06 07:37 51.15382 -0.18274 198 ft 16 kts 172°
2026-05-06 07:37 51.15257 -0.18230 199 ft 20 kts 168°
2026-05-06 07:37 51.15179 -0.18301 199 ft 16 kts 257°
2026-05-06 07:38 51.15158 -0.18502 199 ft 20 kts 261°
2026-05-06 07:38 51.15126 -0.18743 199 ft 23 kts 258°
2026-05-06 07:38 51.15089 -0.19014 199 ft 26 kts 258°
2026-05-06 07:38 51.15046 -0.19318 200 ft 27 kts 258°
2026-05-06 07:39 51.15008 -0.19600 200 ft 25 kts 258°
2026-05-06 07:39 51.14969 -0.19886 200 ft 27 kts 258°
2026-05-06 07:39 51.14928 -0.20178 200 ft 25 kts 258°
2026-05-06 07:39 51.14891 -0.20453 201 ft 26 kts 258°
2026-05-06 07:40 51.14850 -0.20751 201 ft 28 kts 258°
2026-05-06 07:40 51.14807 -0.21056 202 ft 24 kts 257°
2026-05-06 07:40 51.14768 -0.21280 203 ft 21 kts 258°
2026-05-06 07:40 51.14695 -0.21396 203 ft 16 kts 162°
2026-05-06 07:41 51.14582 -0.21307 203 ft 19 kts 160°
2026-05-06 07:41 51.14527 -0.21116 203 ft 25 kts 77°
2026-05-06 07:41 51.14620 -0.20460 201 ft 95 kts 77°
2026-05-06 07:41 51.14805 -0.19101 200 ft 153 kts 78°
2026-05-06 07:42 51.15044 -0.17257 464 ft 177 kts 77°
2026-05-06 07:42 51.15281 -0.15390 1145 ft 175 kts 73°
2026-05-06 07:42 51.15550 -0.13509 1824 ft 175 kts 72°
2026-05-06 07:42 51.15828 -0.11600 2306 ft 185 kts 72°
2026-05-06 07:43 51.16130 -0.09518 2681 ft 201 kts 72°
2026-05-06 07:43 51.16456 -0.07239 3009 ft 222 kts 73°
2026-05-06 07:43 51.16766 -0.04723 3423 ft 242 kts 78°
2026-05-06 07:43 51.16887 -0.01989 3963 ft 257 kts 85°
2026-05-06 07:44 51.16853 0.00900 4696 ft 263 kts 88°
2026-05-06 07:44 51.16793 0.03811 5396 ft 269 kts 88°
2026-05-06 07:44 51.16730 0.06811 5844 ft 274 kts 88°
2026-05-06 07:44 51.16668 0.09890 6187 ft 283 kts 88°
2026-05-06 07:45 51.16608 0.13002 6982 ft 284 kts 88°
2026-05-06 07:45 51.16553 0.16149 7809 ft 284 kts 87°
2026-05-06 07:45 51.16550 0.19289 8575 ft 286 kts 86°
2026-05-06 07:45 51.16566 0.22395 9307 ft 287 kts 86°
2026-05-06 07:46 51.16579 0.25587 10017 ft 289 kts 87°
2026-05-06 07:46 51.16589 0.28797 10710 ft 292 kts 87°
2026-05-06 07:46 51.16595 0.32000 11344 ft 295 kts 88°
2026-05-06 07:46 51.16600 0.35303 11991 ft 299 kts 88°
2026-05-06 07:47 51.16603 0.38594 12612 ft 302 kts 88°
2026-05-06 07:47 51.16604 0.41942 13232 ft 305 kts 88°
2026-05-06 07:47 51.16604 0.45323 13835 ft 308 kts 88°
2026-05-06 07:47 51.16604 0.48741 14435 ft 311 kts 88°
2026-05-06 07:48 51.16602 0.52205 14846 ft 321 kts 88°
2026-05-06 07:48 51.16601 0.55800 15108 ft 335 kts 88°
2026-05-06 07:48 51.16599 0.59635 15369 ft 349 kts 88°
2026-05-06 07:48 51.16595 0.63551 15620 ft 363 kts 88°
2026-05-06 07:49 51.16589 0.67648 15951 ft 373 kts 89°
2026-05-06 07:49 51.16581 0.71788 16471 ft 378 kts 89°
2026-05-06 07:49 51.16571 0.75959 17042 ft 380 kts 89°
2026-05-06 07:49 51.16560 0.80141 17578 ft 383 kts 89°
2026-05-06 07:50 51.16547 0.84386 18096 ft 386 kts 89°
2026-05-06 07:50 51.16532 0.88678 18619 ft 389 kts 89°
2026-05-06 07:50 51.16517 0.92990 19112 ft 392 kts 89°
2026-05-06 07:50 51.16499 0.97366 19623 ft 395 kts 89°
2026-05-06 07:51 51.16480 1.01710 20134 ft 397 kts 89°
2026-05-06 07:51 51.16460 1.06092 20614 ft 400 kts 89°
2026-05-06 07:51 51.16437 1.10563 21098 ft 402 kts 89°
2026-05-06 07:51 51.16412 1.14972 21568 ft 404 kts 90°
2026-05-06 07:52 51.16384 1.19480 22011 ft 407 kts 90°
2026-05-06 07:52 51.16354 1.23963 22444 ft 409 kts 90°
2026-05-06 07:52 51.16322 1.28510 22871 ft 412 kts 90°
2026-05-06 07:52 51.16289 1.33034 23293 ft 414 kts 90°
2026-05-06 07:53 51.16187 1.37614 23686 ft 417 kts 93°
2026-05-06 07:53 51.15980 1.42259 24064 ft 420 kts 94°
2026-05-06 07:53 51.15760 1.46866 24449 ft 422 kts 94°
2026-05-06 07:53 51.15532 1.51542 24844 ft 424 kts 94°
2026-05-06 07:54 51.15303 1.56197 25222 ft 426 kts 94°
2026-05-06 07:54 51.15071 1.60903 25591 ft 428 kts 94°
2026-05-06 07:54 51.14840 1.65570 25957 ft 429 kts 95°
2026-05-06 07:54 51.14601 1.70359 26313 ft 431 kts 95°
2026-05-06 07:55 51.14362 1.75114 26657 ft 432 kts 95°
2026-05-06 07:55 51.14122 1.79871 26978 ft 434 kts 95°
2026-05-06 07:55 51.13876 1.84678 27296 ft 436 kts 95°
2026-05-06 07:55 51.13629 1.89463 27603 ft 437 kts 95°
2026-05-06 07:56 51.13380 1.94254 27893 ft 439 kts 95°
2026-05-06 07:56 51.13127 1.99107 28175 ft 441 kts 95°
2026-05-06 07:56 51.12872 2.03974 28444 ft 443 kts 95°
2026-05-06 07:56 51.12613 2.08870 28703 ft 444 kts 95°
2026-05-06 07:57 51.12352 2.13753 28956 ft 446 kts 95°
2026-05-06 07:57 51.12088 2.18647 29257 ft 446 kts 95°
2026-05-06 07:57 51.11821 2.23561 29638 ft 445 kts 95°
2026-05-06 07:57 51.11557 2.28394 30012 ft 443 kts 95°
2026-05-06 07:58 51.11287 2.33292 30373 ft 442 kts 95°
2026-05-06 07:58 51.11019 2.38133 30724 ft 440 kts 95°
2026-05-06 07:58 51.10749 2.42962 31057 ft 439 kts 95°
2026-05-06 07:58 51.10479 2.47723 31358 ft 438 kts 95°
2026-05-06 07:59 51.10203 2.52561 31637 ft 437 kts 95°
2026-05-06 07:59 51.09927 2.57348 31889 ft 437 kts 95°
2026-05-06 07:59 51.09619 2.62091 32131 ft 436 kts 97°
2026-05-06 07:59 51.09147 2.66902 32372 ft 435 kts 101°
2026-05-06 08:00 51.08519 2.71564 32605 ft 435 kts 104°
2026-05-06 08:00 51.07813 2.76262 32837 ft 434 kts 104°
2026-05-06 08:00 51.07110 2.80893 33045 ft 434 kts 104°
2026-05-06 08:00 51.06409 2.85499 33219 ft 435 kts 104°
2026-05-06 08:01 51.05696 2.90174 33376 ft 435 kts 104°
2026-05-06 08:01 51.04985 2.94828 33522 ft 436 kts 104°
2026-05-06 08:01 51.04268 2.99516 33666 ft 437 kts 104°
2026-05-06 08:01 51.03550 3.04194 33808 ft 438 kts 104°
2026-05-06 08:02 51.02825 3.08905 33949 ft 439 kts 104°
2026-05-06 08:02 51.02097 3.13625 34097 ft 439 kts 104°
2026-05-06 08:02 51.01379 3.18262 34225 ft 439 kts 104°
2026-05-06 08:02 51.00643 3.23011 34351 ft 439 kts 104°
2026-05-06 08:03 50.99918 3.27669 34461 ft 440 kts 104°
2026-05-06 08:03 50.99180 3.32403 34537 ft 441 kts 104°
2026-05-06 08:03 50.97699 3.41854 34731 ft 443 kts 104°
2026-05-06 08:04 50.96215 3.51277 34861 ft 444 kts 104°
2026-05-06 08:04 50.94709 3.60781 34882 ft 444 kts 104°
2026-05-06 08:05 50.93201 3.70243 34860 ft 443 kts 104°
2026-05-06 08:05 50.91681 3.79722 34875 ft 443 kts 104°
2026-05-06 08:06 50.90154 3.89195 34859 ft 444 kts 105°
2026-05-06 08:06 50.88626 3.98607 34862 ft 444 kts 105°
2026-05-06 08:07 50.87005 4.08087 34843 ft 444 kts 107°
2026-05-06 08:07 50.85240 4.17441 34847 ft 445 kts 107°
2026-05-06 08:08 50.83472 4.26774 34815 ft 445 kts 107°
2026-05-06 08:08 50.81697 4.36148 34840 ft 446 kts 107°
2026-05-06 08:09 50.79908 4.45577 34810 ft 446 kts 107°
2026-05-06 08:09 50.78128 4.54917 34819 ft 447 kts 107°
2026-05-06 08:10 50.76333 4.64292 34831 ft 447 kts 107°
2026-05-06 08:10 50.74516 4.73739 34827 ft 448 kts 108°
2026-05-06 08:11 50.72695 4.83151 34826 ft 449 kts 108°
2026-05-06 08:11 50.70869 4.92550 34822 ft 451 kts 108°
2026-05-06 08:12 50.69031 5.01970 34804 ft 451 kts 108°
2026-05-06 08:12 50.67176 5.11425 34822 ft 450 kts 108°
2026-05-06 08:13 50.65322 5.20826 34810 ft 450 kts 108°
2026-05-06 08:13 50.63464 5.30204 34815 ft 450 kts 108°
2026-05-06 08:14 50.61600 5.39564 34829 ft 451 kts 108°
2026-05-06 08:14 50.59712 5.49004 34808 ft 451 kts 108°
2026-05-06 08:15 50.57826 5.58379 34805 ft 451 kts 108°
2026-05-06 08:15 50.55959 5.67629 34804 ft 451 kts 109°
2026-05-06 08:16 50.54050 5.77034 34786 ft 451 kts 109°
2026-05-06 08:16 50.52149 5.86352 34787 ft 451 kts 109°
2026-05-06 08:17 50.50227 5.95736 34781 ft 450 kts 109°
2026-05-06 08:17 50.48306 6.05074 34764 ft 450 kts 109°
2026-05-06 08:18 50.46376 6.14404 34759 ft 452 kts 109°
2026-05-06 08:18 50.44426 6.23787 34754 ft 452 kts 109°
2026-05-06 08:19 50.42482 6.33098 34764 ft 452 kts 109°
2026-05-06 08:19 50.40879 6.42654 34759 ft 453 kts 103°
2026-05-06 08:20 50.39551 6.52314 34759 ft 453 kts 103°
2026-05-06 08:20 50.38232 6.61889 34754 ft 454 kts 103°
2026-05-06 08:21 50.36888 6.71551 34749 ft 454 kts 104°
2026-05-06 08:21 50.35535 6.81202 34749 ft 454 kts 104°
2026-05-06 08:22 50.34172 6.90857 34756 ft 454 kts 104°
2026-05-06 08:22 50.32811 7.00429 34761 ft 454 kts 104°
2026-05-06 08:23 50.31429 7.10090 34758 ft 454 kts 104°
2026-05-06 08:23 50.30043 7.19720 34762 ft 454 kts 104°
2026-05-06 08:24 50.28652 7.29320 34765 ft 454 kts 104°
2026-05-06 08:24 50.27246 7.38968 34767 ft 454 kts 105°
2026-05-06 08:25 50.25840 7.48556 34770 ft 455 kts 104°
2026-05-06 08:25 50.24422 7.58159 34771 ft 454 kts 105°
2026-05-06 08:26 50.22996 7.67758 34777 ft 455 kts 105°
2026-05-06 08:26 50.21553 7.77416 34773 ft 455 kts 105°
2026-05-06 08:27 50.20109 7.87023 34775 ft 456 kts 105°
2026-05-06 08:27 50.18647 7.96683 34775 ft 456 kts 105°
2026-05-06 08:28 50.17190 8.06263 34770 ft 456 kts 105°
2026-05-06 08:28 50.15710 8.15930 34771 ft 455 kts 105°
2026-05-06 08:29 50.14243 8.25454 34770 ft 456 kts 105°
2026-05-06 08:29 50.12756 8.35051 34770 ft 456 kts 105°
2026-05-06 08:30 50.11254 8.44684 34774 ft 457 kts 105°
2026-05-06 08:30 50.09748 8.54294 34772 ft 458 kts 106°
2026-05-06 08:31 50.08239 8.63867 34758 ft 458 kts 106°
2026-05-06 08:31 50.06704 8.73529 34765 ft 458 kts 107°
2026-05-06 08:32 50.04999 8.83020 34755 ft 457 kts 111°
2026-05-06 08:32 50.02922 8.92275 34771 ft 457 kts 112°
2026-05-06 08:33 50.00797 9.01641 34764 ft 457 kts 112°
2026-05-06 08:33 49.98691 9.10914 34778 ft 456 kts 112°
2026-05-06 08:34 49.95524 9.24786 34789 ft 457 kts 112°
2026-05-06 08:35 49.93388 9.34093 34803 ft 457 kts 112°
2026-05-06 08:35 49.91248 9.43375 34802 ft 458 kts 112°
2026-05-06 08:36 49.89100 9.52656 34798 ft 458 kts 113°
2026-05-06 08:36 49.86951 9.61896 34804 ft 458 kts 113°
2026-05-06 08:37 49.84789 9.71149 34796 ft 457 kts 114°
2026-05-06 08:37 49.82613 9.80417 34797 ft 457 kts 114°
2026-05-06 08:38 49.80444 9.89631 34802 ft 457 kts 114°
2026-05-06 08:38 49.78256 9.98880 34808 ft 457 kts 114°
2026-05-06 08:39 49.76071 10.08070 34806 ft 457 kts 114°
2026-05-06 08:39 49.73875 10.17276 34792 ft 457 kts 114°
2026-05-06 08:40 49.71665 10.26504 34803 ft 456 kts 115°
2026-05-06 08:40 49.69465 10.35649 34803 ft 455 kts 115°
2026-05-06 08:41 49.67264 10.44754 34797 ft 455 kts 115°
2026-05-06 08:41 49.65039 10.53919 34792 ft 456 kts 115°
2026-05-06 08:42 49.62815 10.63046 34805 ft 456 kts 115°
2026-05-06 08:42 49.60578 10.72193 34800 ft 456 kts 116°
2026-05-06 08:43 49.58338 10.81316 34808 ft 456 kts 116°
2026-05-06 08:43 49.56093 10.90420 34814 ft 456 kts 116°
2026-05-06 08:44 49.53826 10.99563 34816 ft 456 kts 116°
2026-05-06 08:44 49.51321 11.08409 34821 ft 452 kts 122°
2026-05-06 08:45 49.48487 11.17051 34822 ft 452 kts 122°
2026-05-06 08:45 49.45641 11.25676 34822 ft 453 kts 122°
2026-05-06 08:46 49.42792 11.34297 34828 ft 454 kts 122°
2026-05-06 08:46 49.39933 11.42921 34820 ft 454 kts 123°
2026-05-06 08:47 49.37075 11.51516 34818 ft 455 kts 123°
2026-05-06 08:47 49.34198 11.60140 34811 ft 455 kts 123°
2026-05-06 08:48 49.31303 11.68792 34814 ft 455 kts 123°
2026-05-06 08:48 49.28411 11.77397 34819 ft 455 kts 124°
2026-05-06 08:49 49.25530 11.85946 34824 ft 455 kts 124°
2026-05-06 08:49 49.22617 11.94555 34822 ft 456 kts 124°
2026-05-06 08:50 49.19698 12.03157 34822 ft 456 kts 124°
2026-05-06 08:50 49.16761 12.11787 34818 ft 456 kts 124°
2026-05-06 08:51 49.13838 12.20346 34811 ft 456 kts 124°
2026-05-06 08:51 49.10904 12.28904 34812 ft 457 kts 124°
2026-05-06 08:52 49.07961 12.37462 34811 ft 458 kts 124°
2026-05-06 08:52 49.04988 12.46076 34815 ft 458 kts 124°
2026-05-06 08:53 49.02036 12.54600 34818 ft 458 kts 124°
2026-05-06 08:53 48.99046 12.63207 34819 ft 459 kts 124°
2026-05-06 08:54 48.96037 12.71845 34814 ft 458 kts 125°
2026-05-06 08:54 48.93073 12.80315 34813 ft 458 kts 124°
2026-05-06 08:55 48.90080 12.88853 34819 ft 458 kts 125°
2026-05-06 08:55 48.87078 12.97386 34830 ft 458 kts 125°
2026-05-06 08:56 48.84072 13.05888 34825 ft 457 kts 124°
2026-05-06 08:56 48.81076 13.14349 34825 ft 457 kts 124°
2026-05-06 08:57 48.78060 13.22831 34826 ft 457 kts 124°
2026-05-06 08:57 48.75053 13.31262 34827 ft 457 kts 124°
2026-05-06 08:58 48.72028 13.39716 34822 ft 456 kts 124°
2026-05-06 08:58 48.69013 13.48119 34819 ft 457 kts 124°
2026-05-06 08:59 48.65982 13.56529 34821 ft 457 kts 125°
2026-05-06 08:59 48.62722 13.64668 34819 ft 455 kts 128°
2026-05-06 09:00 48.59349 13.72793 34821 ft 454 kts 128°
2026-05-06 09:00 48.56001 13.80839 34824 ft 454 kts 129°
2026-05-06 09:01 48.52632 13.88907 34823 ft 454 kts 128°
2026-05-06 09:01 48.49276 13.96930 34821 ft 454 kts 128°
2026-05-06 09:02 48.45916 14.04934 34821 ft 455 kts 128°
2026-05-06 09:02 48.42524 14.12992 34823 ft 454 kts 128°
2026-05-06 09:03 48.39151 14.20989 34825 ft 453 kts 128°
2026-05-06 09:03 48.35770 14.28978 34827 ft 453 kts 128°
2026-05-06 09:04 48.32399 14.36910 34826 ft 453 kts 128°
2026-05-06 09:04 48.29016 14.44854 34824 ft 453 kts 128°
2026-05-06 09:05 48.25617 14.52812 34817 ft 452 kts 128°
2026-05-06 09:05 48.22243 14.60691 34813 ft 452 kts 128°
2026-05-06 09:06 48.18818 14.68663 34814 ft 452 kts 128°
2026-05-06 09:06 48.15414 14.76566 34816 ft 451 kts 128°
2026-05-06 09:07 48.12015 14.84426 34810 ft 451 kts 128°
2026-05-06 09:07 48.08628 14.92245 34800 ft 451 kts 128°
2026-05-06 09:08 48.05199 15.00131 34794 ft 451 kts 128°
2026-05-06 09:08 48.01790 15.07960 34798 ft 450 kts 128°
2026-05-06 09:09 47.98389 15.15738 34806 ft 450 kts 128°
2026-05-06 09:09 47.94964 15.23548 34806 ft 451 kts 128°
2026-05-06 09:10 47.91524 15.31373 34822 ft 451 kts 128°
2026-05-06 09:10 47.87937 15.38823 34817 ft 448 kts 133°
2026-05-06 09:11 47.84035 15.46082 34833 ft 450 kts 133°
2026-05-06 09:11 47.80135 15.53308 34846 ft 449 kts 133°
2026-05-06 09:12 47.76227 15.60543 34839 ft 450 kts 133°
2026-05-06 09:12 47.72345 15.67711 34837 ft 451 kts 134°
2026-05-06 09:13 47.68409 15.74957 34844 ft 450 kts 134°
2026-05-06 09:13 47.64474 15.82187 34852 ft 451 kts 134°
2026-05-06 09:14 47.60532 15.89409 34868 ft 452 kts 134°
2026-05-06 09:14 47.56582 15.96626 34862 ft 452 kts 134°
2026-05-06 09:15 47.52634 16.03825 34859 ft 453 kts 134°
2026-05-06 09:15 47.48672 16.11026 34876 ft 452 kts 134°
2026-05-06 09:16 47.44688 16.18248 34878 ft 452 kts 134°
2026-05-06 09:16 47.40723 16.25418 34879 ft 452 kts 134°
2026-05-06 09:17 47.36768 16.32549 34868 ft 453 kts 134°
2026-05-06 09:17 47.32755 16.39768 34871 ft 453 kts 134°
2026-05-06 09:18 47.28764 16.46925 34865 ft 454 kts 134°
2026-05-06 09:18 47.24795 16.54147 34878 ft 457 kts 133°
2026-05-06 09:19 47.20849 16.61377 34878 ft 457 kts 133°
2026-05-06 09:19 47.16854 16.68666 34872 ft 457 kts 134°
2026-05-06 09:20 47.12879 16.75892 34877 ft 455 kts 134°
2026-05-06 09:20 47.08892 16.83118 34877 ft 456 kts 134°
2026-05-06 09:21 47.04913 16.90312 34883 ft 456 kts 134°
2026-05-06 09:21 47.00906 16.97533 34887 ft 456 kts 134°
2026-05-06 09:22 46.96922 17.04701 34875 ft 457 kts 134°
2026-05-06 09:22 46.92906 17.11902 34887 ft 459 kts 134°
2026-05-06 09:23 46.88873 17.19113 34885 ft 460 kts 134°
2026-05-06 09:23 46.84824 17.26340 34886 ft 459 kts 134°
2026-05-06 09:24 46.80769 17.33555 34888 ft 459 kts 134°
2026-05-06 09:24 46.76747 17.40692 34895 ft 458 kts 133°
2026-05-06 09:25 46.72695 17.47868 34901 ft 459 kts 134°
2026-05-06 09:25 46.68632 17.55041 34905 ft 459 kts 133°
2026-05-06 09:26 46.64572 17.62190 34908 ft 460 kts 133°
2026-05-06 09:26 46.60507 17.69342 34909 ft 461 kts 133°
2026-05-06 09:27 46.56555 17.76700 34919 ft 461 kts 132°
2026-05-06 09:27 46.52641 17.84069 34924 ft 461 kts 132°
2026-05-06 09:28 46.48729 17.91380 34935 ft 461 kts 132°
2026-05-06 09:28 46.44797 17.98690 34934 ft 462 kts 132°
2026-05-06 09:29 46.40831 18.06044 34935 ft 462 kts 132°
2026-05-06 09:29 46.36891 18.13323 34941 ft 462 kts 132°
2026-05-06 09:30 46.32920 18.20644 34947 ft 464 kts 132°
2026-05-06 09:30 46.28930 18.27978 34993 ft 465 kts 132°
2026-05-06 09:31 46.24950 18.35278 34986 ft 465 kts 132°
2026-05-06 09:31 46.20943 18.42605 34952 ft 466 kts 131°
2026-05-06 09:32 46.16936 18.49916 34946 ft 467 kts 131°
2026-05-06 09:32 46.12899 18.57261 34943 ft 468 kts 131°
2026-05-06 09:33 46.08870 18.64574 34940 ft 468 kts 131°
2026-05-06 09:33 46.04807 18.71923 34940 ft 469 kts 132°
2026-05-06 09:34 46.00766 18.79221 34941 ft 470 kts 132°
2026-05-06 09:34 45.96668 18.86599 34942 ft 470 kts 132°
2026-05-06 09:35 45.92517 18.93755 34944 ft 468 kts 136°
2026-05-06 09:35 45.87968 19.00384 34946 ft 466 kts 138°
2026-05-06 09:36 45.83375 19.06942 34951 ft 466 kts 138°
2026-05-06 09:36 45.78788 19.13483 34960 ft 468 kts 138°
2026-05-06 09:37 45.74189 19.20033 34961 ft 468 kts 138°
2026-05-06 09:37 45.69570 19.26600 34960 ft 468 kts 138°
2026-05-06 09:38 45.64959 19.33140 34961 ft 468 kts 138°
2026-05-06 09:38 45.60362 19.39646 34963 ft 468 kts 138°
2026-05-06 09:39 45.55749 19.46156 34963 ft 469 kts 138°
2026-05-06 09:39 45.51110 19.52684 34966 ft 468 kts 138°
2026-05-06 09:40 45.46501 19.59158 34968 ft 468 kts 137°
2026-05-06 09:40 45.39503 19.68958 34970 ft 468 kts 138°
2026-05-06 09:41 45.34869 19.75426 34970 ft 468 kts 138°
2026-05-06 09:41 45.30235 19.81883 34971 ft 469 kts 138°
2026-05-06 09:42 45.25585 19.88342 34972 ft 469 kts 138°
2026-05-06 09:42 45.20935 19.94784 34976 ft 469 kts 138°
2026-05-06 09:43 45.16283 20.01217 34982 ft 469 kts 138°
2026-05-06 09:43 45.11609 20.07663 34987 ft 470 kts 138°
2026-05-06 09:44 45.06926 20.14105 34993 ft 470 kts 137°
2026-05-06 09:44 45.02257 20.20515 34996 ft 470 kts 138°
2026-05-06 09:45 44.97566 20.26938 34998 ft 471 kts 137°
2026-05-06 09:45 44.92873 20.33348 35000 ft 472 kts 137°
2026-05-06 09:46 44.88154 20.39781 35001 ft 472 kts 137°
2026-05-06 09:46 44.83435 20.46195 35004 ft 473 kts 137°
2026-05-06 09:47 44.78715 20.52595 35005 ft 472 kts 137°
2026-05-06 09:47 44.73980 20.59002 35004 ft 473 kts 137°
2026-05-06 09:48 44.69239 20.65402 35001 ft 473 kts 138°
2026-05-06 09:48 44.64494 20.71792 34999 ft 474 kts 137°
2026-05-06 09:49 44.59718 20.78205 35000 ft 475 kts 137°
2026-05-06 09:49 44.54967 20.84573 35004 ft 476 kts 138°
2026-05-06 09:50 44.50188 20.90964 35010 ft 476 kts 137°
2026-05-06 09:50 44.45385 20.97370 35013 ft 477 kts 137°
2026-05-06 09:51 44.40608 21.03725 35013 ft 476 kts 137°
2026-05-06 09:51 44.35834 21.10061 35015 ft 476 kts 137°
2026-05-06 09:52 44.31013 21.16445 35017 ft 476 kts 137°
2026-05-06 09:52 44.26240 21.22753 35018 ft 477 kts 137°
2026-05-06 09:53 44.21431 21.29092 35019 ft 476 kts 137°
2026-05-06 09:53 44.16595 21.35394 35020 ft 477 kts 138°
2026-05-06 09:54 44.11671 21.41499 35022 ft 477 kts 139°
2026-05-06 09:54 44.06712 21.47613 35025 ft 477 kts 139°
2026-05-06 09:55 44.01752 21.53735 35029 ft 477 kts 139°
2026-05-06 09:55 43.96799 21.59845 35037 ft 478 kts 139°
2026-05-06 09:56 43.91854 21.65930 35044 ft 478 kts 139°
2026-05-06 09:56 43.86824 21.72110 35054 ft 479 kts 139°
2026-05-06 09:57 43.81868 21.78184 35049 ft 478 kts 139°
2026-05-06 09:57 43.76910 21.84247 35050 ft 479 kts 139°
2026-05-06 09:58 43.71922 21.90332 35046 ft 478 kts 139°
2026-05-06 09:58 43.66938 21.96396 35041 ft 478 kts 139°
2026-05-06 09:59 43.61959 22.02439 35050 ft 479 kts 139°
2026-05-06 09:59 43.56939 22.08525 35056 ft 480 kts 139°
2026-05-06 10:00 43.51917 22.14595 35051 ft 481 kts 139°
2026-05-06 10:00 43.46905 22.20640 35054 ft 483 kts 139°
2026-05-06 10:01 43.41853 22.26716 35009 ft 482 kts 139°
2026-05-06 10:01 43.36820 22.32759 35155 ft 484 kts 139°
2026-05-06 10:02 43.34287 22.35791 35039 ft 484 kts 139°
2026-05-06 10:02 43.31745 22.38835 35049 ft 485 kts 139°
2026-05-06 10:02 43.26647 22.44924 35060 ft 486 kts 139°
2026-05-06 10:03 43.21585 22.50962 35062 ft 486 kts 139°
2026-05-06 10:03 43.16469 22.57047 35068 ft 487 kts 139°
2026-05-06 10:04 43.11381 22.63085 35074 ft 488 kts 139°
2026-05-06 10:04 43.06214 22.69203 35080 ft 489 kts 139°
2026-05-06 10:05 43.01108 22.75235 35078 ft 489 kts 139°
2026-05-06 10:05 42.96007 22.81358 35074 ft 489 kts 137°
2026-05-06 10:06 42.91032 22.87690 35080 ft 489 kts 137°
2026-05-06 10:06 42.86053 22.94026 35086 ft 490 kts 136°
2026-05-06 10:07 42.81065 23.00358 35083 ft 491 kts 136°
2026-05-06 10:07 42.76070 23.06679 35079 ft 492 kts 136°
2026-05-06 10:08 42.71073 23.12991 35081 ft 491 kts 136°
2026-05-06 10:08 42.66070 23.19289 35081 ft 491 kts 136°
2026-05-06 10:09 42.61070 23.25574 35087 ft 492 kts 136°
2026-05-06 10:09 42.56074 23.31838 35095 ft 491 kts 136°
2026-05-06 10:10 42.51037 23.38141 35102 ft 492 kts 136°
2026-05-06 10:10 42.46041 23.44374 35103 ft 492 kts 136°
2026-05-06 10:11 42.40978 23.50677 35096 ft 493 kts 136°
2026-05-06 10:11 42.35954 23.56919 35102 ft 494 kts 136°
2026-05-06 10:12 42.30914 23.63166 35110 ft 494 kts 136°
2026-05-06 10:12 42.25810 23.69479 35110 ft 494 kts 136°
2026-05-06 10:13 42.20755 23.75717 35126 ft 494 kts 136°
2026-05-06 10:13 42.15699 23.81942 35121 ft 495 kts 136°
2026-05-06 10:14 42.10624 23.88177 35120 ft 496 kts 136°
2026-05-06 10:14 42.05518 23.94435 35114 ft 496 kts 136°
2026-05-06 10:15 42.00435 24.00648 35114 ft 497 kts 136°
2026-05-06 10:15 41.95287 24.06872 35116 ft 497 kts 137°
2026-05-06 10:16 41.90149 24.13034 35120 ft 497 kts 137°
2026-05-06 10:16 41.85007 24.19188 35125 ft 496 kts 136°
2026-05-06 10:17 41.79867 24.25335 35129 ft 496 kts 136°
2026-05-06 10:17 41.74733 24.31462 35130 ft 496 kts 137°
2026-05-06 10:18 41.69580 24.37599 35133 ft 496 kts 136°
2026-05-06 10:18 41.64413 24.43736 35125 ft 496 kts 136°
2026-05-06 10:19 41.59268 24.49833 35123 ft 497 kts 136°
2026-05-06 10:19 41.54123 24.55919 35115 ft 497 kts 136°
2026-05-06 10:20 41.48954 24.62022 35111 ft 497 kts 136°
2026-05-06 10:20 41.43752 24.68143 35099 ft 498 kts 137°
2026-05-06 10:21 41.38741 24.74440 35094 ft 497 kts 134°
2026-05-06 10:21 41.33825 24.80880 35089 ft 497 kts 134°
2026-05-06 10:22 41.28906 24.87310 35085 ft 498 kts 134°
2026-05-06 10:22 41.23970 24.93738 35075 ft 497 kts 134°
2026-05-06 10:23 41.19055 25.00121 35075 ft 498 kts 134°
2026-05-06 10:23 41.14083 25.06562 35062 ft 498 kts 134°
2026-05-06 10:24 41.09139 25.12953 35064 ft 497 kts 134°
2026-05-06 10:24 41.04211 25.19310 35069 ft 498 kts 134°
2026-05-06 10:25 40.99234 25.25713 35059 ft 498 kts 134°
2026-05-06 10:25 40.94310 25.32036 35059 ft 498 kts 134°
2026-05-06 10:26 40.89336 25.38407 35060 ft 498 kts 134°
2026-05-06 10:26 40.84369 25.44760 35066 ft 498 kts 134°
2026-05-06 10:27 40.79403 25.51093 35066 ft 498 kts 134°
2026-05-06 10:27 40.74442 25.57409 35067 ft 498 kts 134°
2026-05-06 10:28 40.69479 25.63713 35067 ft 497 kts 134°
2026-05-06 10:28 40.64473 25.70060 35068 ft 497 kts 134°
2026-05-06 10:29 40.59511 25.76334 35067 ft 497 kts 134°
2026-05-06 10:29 40.54533 25.82616 35069 ft 497 kts 134°
2026-05-06 10:30 40.49607 25.88959 35070 ft 497 kts 131°
2026-05-06 10:30 40.45049 25.95687 35074 ft 496 kts 129°
2026-05-06 10:31 40.40511 26.02494 35077 ft 495 kts 129°
2026-05-06 10:31 40.35973 26.09276 35078 ft 495 kts 129°
2026-05-06 10:32 40.31424 26.16046 35080 ft 495 kts 129°
2026-05-06 10:32 40.26883 26.22789 35081 ft 494 kts 129°
2026-05-06 10:33 40.22347 26.29509 35084 ft 494 kts 129°
2026-05-06 10:33 40.17809 26.36218 35086 ft 495 kts 129°
2026-05-06 10:34 40.13209 26.42922 35082 ft 495 kts 131°
2026-05-06 10:34 40.08332 26.49264 35082 ft 495 kts 133°
2026-05-06 10:35 40.03438 26.55528 35087 ft 495 kts 133°
2026-05-06 10:35 39.98513 26.61834 35084 ft 494 kts 133°
2026-05-06 10:36 39.93613 26.68100 35082 ft 494 kts 134°
2026-05-06 10:36 39.88735 26.74328 35078 ft 494 kts 134°
2026-05-06 10:37 39.83818 26.80591 35079 ft 495 kts 134°
2026-05-06 10:37 39.78886 26.86864 35080 ft 494 kts 134°
2026-05-06 10:38 39.73953 26.93048 35082 ft 494 kts 135°
2026-05-06 10:38 39.68958 26.99154 35085 ft 493 kts 135°
2026-05-06 10:39 39.63971 27.05249 35084 ft 494 kts 135°
2026-05-06 10:39 39.58995 27.11334 35085 ft 494 kts 135°
2026-05-06 10:40 39.54022 27.17404 35084 ft 494 kts 135°
2026-05-06 10:40 39.49152 27.23655 35091 ft 492 kts 130°
2026-05-06 10:41 39.44768 27.30401 35093 ft 491 kts 127°
2026-05-06 10:41 39.40446 27.37230 35090 ft 491 kts 127°
2026-05-06 10:42 39.36089 27.44044 35090 ft 491 kts 127°
2026-05-06 10:42 39.31751 27.50800 35087 ft 491 kts 127°
2026-05-06 10:43 39.27387 27.57583 35087 ft 491 kts 127°
2026-05-06 10:44 39.20819 27.67775 35086 ft 491 kts 128°
2026-05-06 10:44 39.16469 27.74504 35088 ft 492 kts 128°
2026-05-06 10:45 39.12097 27.81254 35091 ft 491 kts 128°
2026-05-06 10:45 39.07725 27.87985 35088 ft 491 kts 128°
2026-05-06 10:46 39.03346 27.94716 35094 ft 491 kts 128°
2026-05-06 10:46 38.98963 28.01438 35097 ft 491 kts 128°
2026-05-06 10:47 38.94583 28.08141 35102 ft 490 kts 128°
2026-05-06 10:47 38.90213 28.14816 35100 ft 490 kts 128°
2026-05-06 10:48 38.85834 28.21494 35096 ft 490 kts 128°
2026-05-06 10:48 38.81441 28.28177 35095 ft 491 kts 128°
2026-05-06 10:49 38.77038 28.34860 35093 ft 491 kts 128°
2026-05-06 10:49 38.72648 28.41513 35091 ft 491 kts 128°
2026-05-06 10:50 38.68235 28.48186 35092 ft 491 kts 128°
2026-05-06 10:50 38.63820 28.54845 35097 ft 490 kts 128°
2026-05-06 10:51 38.59417 28.61476 35094 ft 490 kts 128°
2026-05-06 10:51 38.54831 28.67938 35098 ft 490 kts 132°
2026-05-06 10:52 38.50168 28.74295 35101 ft 491 kts 132°
2026-05-06 10:52 38.45509 28.80635 35106 ft 491 kts 132°
2026-05-06 10:53 38.40847 28.86978 35102 ft 491 kts 132°
2026-05-06 10:53 38.36205 28.93283 35095 ft 491 kts 132°
2026-05-06 10:54 38.31524 28.99628 35089 ft 491 kts 132°
2026-05-06 10:54 38.26847 29.05958 35085 ft 490 kts 132°
2026-05-06 10:55 38.22174 29.12266 35091 ft 490 kts 132°
2026-05-06 10:55 38.17498 29.18567 35092 ft 490 kts 132°
2026-05-06 10:56 38.12842 29.24833 34868 ft 490 kts 132°
2026-05-06 10:56 38.10489 29.27989 34641 ft 487 kts 132°
2026-05-06 10:56 38.08186 29.31077 34417 ft 484 kts 132°
2026-05-06 10:56 38.05876 29.34179 34183 ft 482 kts 131°
2026-05-06 10:57 38.03607 29.37246 33925 ft 481 kts 131°
2026-05-06 10:57 38.01340 29.40316 33671 ft 480 kts 131°
2026-05-06 10:57 37.99024 29.43454 33410 ft 481 kts 131°
2026-05-06 10:57 37.96759 29.46515 33153 ft 481 kts 131°
2026-05-06 10:58 37.94457 29.49624 32897 ft 481 kts 131°
2026-05-06 10:58 37.92182 29.52689 32650 ft 482 kts 131°
2026-05-06 10:58 37.89966 29.55671 32401 ft 482 kts 132°
2026-05-06 10:58 37.87575 29.58888 32125 ft 483 kts 132°
2026-05-06 10:59 37.85284 29.61967 31747 ft 484 kts 132°
2026-05-06 10:59 37.82994 29.65040 31220 ft 484 kts 133°
2026-05-06 10:59 37.80665 29.68164 30570 ft 485 kts 133°
2026-05-06 10:59 37.78323 29.71286 29854 ft 486 kts 133°
2026-05-06 11:00 37.75964 29.74313 29115 ft 487 kts 134°
2026-05-06 11:00 37.73553 29.77345 28449 ft 486 kts 135°
2026-05-06 11:00 37.71206 29.80290 27988 ft 480 kts 134°
2026-05-06 11:00 37.68850 29.83249 27509 ft 475 kts 134°
2026-05-06 11:01 37.66518 29.86184 27025 ft 470 kts 134°
2026-05-06 11:01 37.64233 29.89063 26542 ft 466 kts 134°
2026-05-06 11:01 37.61953 29.91936 26091 ft 460 kts 134°
2026-05-06 11:01 37.59719 29.94749 25847 ft 449 kts 134°
2026-05-06 11:02 37.57526 29.97509 25702 ft 436 kts 134°
2026-05-06 11:02 37.55423 30.00152 25540 ft 424 kts 134°
2026-05-06 11:02 37.53356 30.02778 25319 ft 415 kts 133°
2026-05-06 11:02 37.51342 30.05314 25105 ft 405 kts 137°
2026-05-06 11:03 37.49021 30.07146 24908 ft 393 kts 162°
2026-05-06 11:03 37.46363 30.07781 24948 ft 388 kts 180°
2026-05-06 11:03 37.43667 30.07837 24972 ft 388 kts 183°
2026-05-06 11:03 37.40980 30.07785 24997 ft 388 kts 186°
2026-05-06 11:04 37.38292 30.07530 25022 ft 386 kts 190°
2026-05-06 11:04 37.35620 30.07137 25044 ft 385 kts 191°
2026-05-06 11:04 37.32981 30.06736 25067 ft 385 kts 191°
2026-05-06 11:04 37.30315 30.06339 25079 ft 386 kts 191°
2026-05-06 11:05 37.27639 30.05950 25090 ft 386 kts 190°
2026-05-06 11:05 37.24961 30.05567 25082 ft 387 kts 190°
2026-05-06 11:05 37.22296 30.05189 24938 ft 388 kts 190°
2026-05-06 11:05 37.19628 30.04809 24449 ft 388 kts 190°
2026-05-06 11:06 37.16904 30.04754 23945 ft 392 kts 172°
2026-05-06 11:06 37.14373 30.05982 23519 ft 392 kts 146°
2026-05-06 11:06 37.12497 30.08334 23119 ft 385 kts 120°
2026-05-06 11:06 37.11567 30.11412 22726 ft 372 kts 93°
2026-05-06 11:07 37.11422 30.14582 22384 ft 364 kts 87°
2026-05-06 11:07 37.11356 30.17721 22020 ft 362 kts 88°
2026-05-06 11:07 37.11215 30.20869 21648 ft 360 kts 90°
2026-05-06 11:07 37.11008 30.23968 21251 ft 359 kts 92°
2026-05-06 11:08 37.10761 30.27088 20848 ft 357 kts 92°
2026-05-06 11:08 37.10508 30.30134 20677 ft 347 kts 92°
2026-05-06 11:08 37.10358 30.33052 20591 ft 330 kts 80°
2026-05-06 11:08 37.11039 30.35653 20508 ft 309 kts 50°
2026-05-06 11:09 37.12580 30.37427 20205 ft 298 kts 21°
2026-05-06 11:09 37.14511 30.38094 19805 ft 288 kts
2026-05-06 11:09 37.16518 30.38250 19432 ft 286 kts
2026-05-06 11:09 37.18491 30.38434 19064 ft 284 kts
2026-05-06 11:10 37.20445 30.38655 18703 ft 282 kts
2026-05-06 11:10 37.22410 30.38901 18339 ft 281 kts
2026-05-06 11:10 37.24333 30.39153 17995 ft 280 kts
2026-05-06 11:10 37.26284 30.39446 17619 ft 280 kts
2026-05-06 11:11 37.28046 30.40490 17218 ft 287 kts 38°
2026-05-06 11:11 37.29212 30.42500 16853 ft 295 kts 65°
2026-05-06 11:11 37.29526 30.45056 16475 ft 302 kts 91°
2026-05-06 11:11 37.29264 30.47680 16134 ft 302 kts 96°
2026-05-06 11:12 37.28576 30.50159 15719 ft 306 kts 124°
2026-05-06 11:12 37.27007 30.51883 15345 ft 305 kts 156°
2026-05-06 11:12 37.24939 30.52373 15008 ft 299 kts 186°
2026-05-06 11:12 37.22910 30.51976 14700 ft 298 kts 193°
2026-05-06 11:13 37.20893 30.51462 14360 ft 297 kts 192°
2026-05-06 11:13 37.18848 30.51028 14035 ft 296 kts 190°
2026-05-06 11:13 37.16815 30.50680 13693 ft 294 kts 188°
2026-05-06 11:13 37.14791 30.50378 13356 ft 293 kts 188°
2026-05-06 11:14 37.12776 30.50096 13019 ft 290 kts 187°
2026-05-06 11:14 37.10751 30.50050 12642 ft 291 kts 167°
2026-05-06 11:14 37.08995 30.51159 12284 ft 286 kts 133°
2026-05-06 11:14 37.08010 30.53253 11960 ft 277 kts 99°
2026-05-06 11:15 37.07835 30.55637 11677 ft 274 kts 87°
2026-05-06 11:15 37.07814 30.58010 11342 ft 274 kts 88°
2026-05-06 11:15 37.07731 30.60381 11006 ft 272 kts 88°
2026-05-06 11:15 37.08033 30.62647 10608 ft 265 kts 59°
2026-05-06 11:16 37.09270 30.64273 10256 ft 255 kts 25°
2026-05-06 11:16 37.10930 30.64827 9942 ft 249 kts
2026-05-06 11:16 37.12658 30.64954 9637 ft 248 kts
2026-05-06 11:16 37.14401 30.65128 9314 ft 247 kts
2026-05-06 11:17 37.16110 30.65339 8998 ft 247 kts
2026-05-06 11:17 37.17804 30.65564 8683 ft 246 kts
2026-05-06 11:17 37.19508 30.65871 8355 ft 247 kts 15°
2026-05-06 11:17 37.21051 30.66763 8036 ft 247 kts 32°
2026-05-06 11:18 37.22460 30.68011 7718 ft 246 kts 35°
2026-05-06 11:18 37.23844 30.69291 7404 ft 246 kts 36°
2026-05-06 11:18 37.25011 30.70819 7092 ft 247 kts 56°
2026-05-06 11:18 37.25793 30.72753 6777 ft 247 kts 64°
2026-05-06 11:19 37.26471 30.74720 6475 ft 247 kts 65°
2026-05-06 11:19 37.27154 30.76701 6179 ft 246 kts 65°
2026-05-06 11:19 37.27811 30.78665 5893 ft 244 kts 72°
2026-05-06 11:19 37.27853 30.80732 5605 ft 243 kts 109°
2026-05-06 11:20 37.26874 30.82378 5571 ft 234 kts 144°
2026-05-06 11:20 37.25391 30.83232 5582 ft 235 kts 162°
2026-05-06 11:20 37.23803 30.83672 5566 ft 235 kts 174°
2026-05-06 11:20 37.22153 30.83704 5496 ft 236 kts 184°
2026-05-06 11:21 37.20524 30.83512 5264 ft 234 kts 187°
2026-05-06 11:21 37.18908 30.83264 5024 ft 233 kts 187°
2026-05-06 11:21 37.17318 30.83018 4790 ft 231 kts 187°
2026-05-06 11:21 37.15720 30.82781 4618 ft 230 kts 186°
2026-05-06 11:22 37.14137 30.82557 4422 ft 229 kts 186°
2026-05-06 11:22 37.12538 30.82337 4180 ft 229 kts 186°
2026-05-06 11:22 37.10961 30.82122 3879 ft 228 kts 186°
2026-05-06 11:22 37.09383 30.81908 3581 ft 226 kts 185°
2026-05-06 11:23 37.07838 30.81699 3290 ft 224 kts 185°
2026-05-06 11:23 37.06281 30.81487 2993 ft 221 kts 185°
2026-05-06 11:23 37.04774 30.81282 2706 ft 219 kts 185°
2026-05-06 11:23 37.03269 30.81077 2485 ft 212 kts 185°
2026-05-06 11:24 37.01820 30.80878 2219 ft 205 kts 185°
2026-05-06 11:24 37.00431 30.80688 1924 ft 199 kts 185°
2026-05-06 11:24 36.99068 30.80502 1638 ft 190 kts 185°
2026-05-06 11:24 36.97797 30.80328 1373 ft 175 kts 185°
2026-05-06 11:25 36.96655 30.80171 1179 ft 156 kts 185°
2026-05-06 11:25 36.95644 30.80015 975 ft 139 kts 185°
2026-05-06 11:25 36.94684 30.79890 782 ft 135 kts 184°
2026-05-06 11:25 36.93747 30.79779 633 ft 135 kts 185°
2026-05-06 11:26 36.92823 30.79656 453 ft 134 kts 185°
2026-05-06 11:26 36.91902 30.79520 280 ft 132 kts 184°
2026-05-06 11:26 36.90997 30.79400 171 ft 121 kts 185°
2026-05-06 11:26 36.90322 30.79308 177 ft 72 kts 186°
2026-05-06 11:27 36.89941 30.79256 177 ft 47 kts 186°
2026-05-06 11:27 36.89643 30.79223 176 ft 33 kts 178°
2026-05-06 11:27 36.89507 30.79279 175 ft 16 kts 155°
2026-05-06 11:27 36.89404 30.79337 176 ft 15 kts 156°
2026-05-06 11:28 36.89320 30.79402 178 ft 13 kts 113°
2026-05-06 11:28 36.89305 30.79521 177 ft 14 kts 97°
2026-05-06 11:28 36.89294 30.79644 177 ft 14 kts 96°
2026-05-06 11:28 36.89283 30.79766 178 ft 13 kts 97°
2026-05-06 11:29 36.89272 30.79878 179 ft 12 kts 97°
2026-05-06 11:29 36.89263 30.79986 180 ft 12 kts 96°
2026-05-06 11:29 36.89255 30.80090 181 ft 11 kts 96°
2026-05-06 11:29 36.89246 30.80194 181 ft 12 kts 96°
2026-05-06 11:30 36.89238 30.80289 180 ft 5 kts 92°
2026-05-06 11:30 36.89268 30.80311 180 ft 6 kts
2026-05-06 11:30 36.89313 30.80317 180 ft 6 kts
2026-05-06 11:30 36.89360 30.80323 181 ft 7 kts
2026-05-06 11:31 36.89413 30.80330 181 ft 8 kts
2026-05-06 11:31 36.89477 30.80341 182 ft 9 kts
2026-05-06 11:31 36.89542 30.80351 183 ft 9 kts
2026-05-06 11:31 36.89589 30.80388 183 ft 8 kts 76°
2026-05-06 11:32 36.89617 30.80419 183 ft 4 kts 356°
2026-05-06 11:32 36.89651 30.80412 182 ft 4 kts 349°
2026-05-06 11:32 36.89685 30.80407 183 ft 4 kts 355°
2026-05-06 11:32 36.89689 30.80406 183 ft 0 kts 355°